Location: Stara Lesna
(49.1528°N, 20.2911°E)
Time: 18:32:07
(UTC+02:00)

Meteor 1-28 Rocket - Pass Details

Date: 13 July 2020
Orbit: 505 x 522 km, 97.3° (Epoch: 10 August)

Event Time Altitude Azimuth Distance (km) Brightness Sun altitude
Exits shadow 03:11:54 - 156° (SSE) 2,428 6.3 -11.9°
Reaches altitude 10° 03:13:35 10° 154° (SSE) 1,720 5.6 -11.7°
Maximum altitude 03:17:14 61° 74° (ENE) 585 3.7 -11.4°
Drops below altitude 10° 03:20:56 10° 354° (N) 1,743 6.6 -11.0°
Sets 03:23:04 0° 351° (N) 2,637 7.5 -10.8°
